Date String (YYYY-MM-DD hh:mm:ss) UTC,Instrument flags,absolute air pressure of the measurement (hPa),sample flow rate (lpm),inlet stack bypass flow (lpm),air temperature of the measurement (°C),ambient temperature measured by the external sensor (°C),aerosol sample conditioner tube jacket temperature (°C),OPC LED temperature (°C),internal box temperature (°C),relative humidity of the measurement (%),span deviation,mass concentration of particles derived from Lorenz-Mie calculation of OPC scattering (μg/m³),mass concentration of particles derived from Lorenz-Mie calculation of OPC scattering (μg/m³),mass concentration of particles derived from Lorenz-Mie calculation of OPC scattering (μg/m³)
DateTimeUTC,F1_M11,P_M11,Q1_M11,Q2_M11,T1_M11,T2_M11,T3_M11,T4_M11,T5_M11,U1_M11,ZSPAN_M11,X2_M11,X0_M11,X1_M11
2023-11-10 07:00:00,SystemResetWarning,0832.8,5.00,000.00,022.5,021.4,000.0,030.9,023.8,10.8,0000.0,0003.94,0007.78,0003.47
2023-11-10 07:01:00,SystemResetWarning,0832.7,4.99,000.00,022.4,021.4,000.0,030.9,023.8,10.7,0000.0,0003.89,0007.70,0003.44
2023-11-10 07:02:00,SystemResetWarning,0832.8,5.00,000.00,022.4,021.3,000.0,030.9,023.8,10.7,0000.0,0003.86,0008.34,0003.41
2023-11-10 07:03:00,SystemResetWarning,0832.7,5.00,000.00,022.4,021.3,000.0,030.9,023.8,10.6,0000.0,0003.84,0008.33,0003.39
2023-11-10 07:04:00,SystemResetWarning,0833.0,5.00,000.00,022.4,021.3,000.0,030.9,023.8,10.6,0000.0,0003.84,0008.23,0003.39
2023-11-10 07:05:00,SystemResetWarning,0832.7,5.00,000.00,022.4,021.3,000.0,030.9,023.8,10.6,0000.0,0003.79,0007.75,0003.36
2023-11-10 07:06:00,SystemResetWarning,0832.7,5.00,000.00,022.4,021.3,000.0,030.9,023.8,10.7,0000.0,0003.78,0007.73,0003.34
2023-11-10 07:07:00,SystemResetWarning,0832.7,5.00,000.00,022.4,021.3,000.0,030.8,023.8,10.7,0000.0,0003.74,0007.62,0003.31
2023-11-10 07:08:00,SystemResetWarning,0832.7,5.00,000.00,022.4,021.3,000.0,030.8,023.8,10.9,0000.0,0003.73,0007.85,0003.29
2023-11-10 07:09:00,SystemResetWarning,0832.7,5.00,000.00,022.4,021.3,000.0,030.8,023.8,10.8,0000.0,0003.77,0008.19,0003.29
2023-11-10 07:10:00,SystemResetWarning,0832.7,5.00,000.00,022.4,021.3,000.0,030.8,023.7,10.7,0000.0,0003.82,0008.59,0003.31
2023-11-10 07:11:00,SystemResetWarning,0832.7,5.00,000.00,022.4,021.2,000.0,030.8,023.7,10.7,0000.0,0003.84,0009.25,0003.32
2023-11-10 07:12:00,SystemResetWarning,0832.7,5.00,000.00,022.3,021.2,000.0,030.8,023.7,10.8,0000.0,0003.85,0009.27,0003.34
2023-11-10 07:13:00,SystemResetWarning,0832.6,5.00,000.00,022.3,021.2,000.0,030.8,023.6,10.9,0000.0,0003.85,0008.58,0003.34
2023-11-10 07:14:00,SystemResetWarning,0832.6,5.00,000.00,022.3,021.2,000.0,030.8,023.6,10.8,0000.0,0003.79,0008.41,0003.32
2023-11-10 07:15:00,SystemResetWarning,0832.7,5.00,000.00,022.3,021.2,000.0,030.8,023.6,10.8,0000.0,0003.75,0008.33,0003.29
2023-11-10 07:16:00,SystemResetWarning,0832.6,5.01,000.00,022.3,021.1,000.0,030.8,023.6,10.9,0000.0,0003.76,0008.31,0003.28
2023-11-10 07:17:00,SystemResetWarning,0832.6,5.00,000.00,022.3,021.1,000.0,030.8,023.6,10.9,0000.0,0003.74,0008.36,0003.27
2023-11-10 07:18:00,SystemResetWarning,0832.6,5.01,000.00,022.2,021.1,000.0,030.8,023.6,11.1,0000.0,0003.73,0008.52,0003.25
2023-11-10 07:19:00,SystemResetWarning,0832.7,5.00,000.00,022.2,021.1,000.0,030.7,023.6,11.0,0000.0,0003.73,0008.40,0003.24
2023-11-10 07:20:00,SystemResetWarning,0832.6,5.00,000.00,022.2,021.1,000.0,030.7,023.6,10.9,0000.0,0003.66,0007.98,0003.20
2023-11-10 07:21:00,SystemResetWarning,0832.5,5.00,000.00,022.2,021.1,000.0,030.7,023.6,10.9,0000.0,0003.58,0007.63,0003.15
2023-11-10 07:22:00,SystemResetWarning,0832.5,5.00,000.00,022.2,021.1,000.0,030.7,023.5,10.8,0000.0,0003.54,0006.53,0003.12
2023-11-10 07:23:00,SystemResetWarning,0832.5,5.00,000.00,022.2,021.0,000.0,030.7,023.5,10.9,0000.0,0003.52,0006.56,0003.09
2023-11-10 07:24:00,SystemResetWarning,0832.5,5.00,000.00,022.2,021.0,000.0,030.7,023.5,10.8,0000.0,0003.51,0006.48,0003.07
2023-11-10 07:25:00,SystemResetWarning,0832.5,5.00,000.00,022.2,021.0,000.0,030.7,023.5,10.8,0000.0,0003.49,0006.47,0003.06
2023-11-10 07:26:00,SystemResetWarning,0832.6,5.00,000.00,022.2,021.0,000.0,030.7,023.5,10.8,0000.0,0003.49,0006.49,0003.05
2023-11-10 07:27:00,SystemResetWarning,0832.6,4.99,000.00,022.2,021.0,000.0,030.7,023.5,10.8,0000.0,0003.49,0006.50,0003.04
2023-11-10 07:28:00,SystemResetWarning,0832.5,5.00,000.00,022.1,021.0,000.0,030.6,023.5,10.7,0000.0,0003.48,0006.22,0003.02
2023-11-10 07:29:00,SystemResetWarning,0832.5,5.00,000.00,022.1,021.0,000.0,030.6,023.5,10.8,0000.0,0003.44,0005.69,0003.00
2023-11-10 07:30:00,SystemResetWarning,0832.5,5.01,000.00,022.2,021.1,000.0,030.6,023.6,11.0,0000.0,0003.41,0005.63,0002.97
2023-11-10 07:31:00,SystemResetWarning,0832.5,5.00,000.00,022.2,021.1,000.0,030.6,023.6,11.0,0000.0,0003.43,0005.85,0002.99
2023-11-10 07:32:00,SystemResetWarning,0832.5,5.01,000.00,022.1,021.1,000.0,030.6,023.6,10.9,0000.0,0003.46,0007.12,0003.00
2023-11-10 07:33:00,SystemResetWarning,0832.5,4.99,000.00,022.1,021.1,000.0,030.6,023.5,10.7,0000.0,0003.45,0007.14,0002.99
2023-11-10 07:34:00,SystemResetWarning,0832.5,4.99,000.00,022.1,021.0,000.0,030.6,023.5,10.8,0000.0,0003.42,0006.99,0002.98
2023-11-10 07:35:00,SystemResetWarning,0832.5,4.99,000.00,022.1,021.0,000.0,030.6,023.4,10.9,0000.0,0003.42,0006.99,0003.00
2023-11-10 07:36:00,SystemResetWarning,0832.4,5.01,000.00,022.1,021.0,000.0,030.6,023.4,10.8,0000.0,0003.44,0007.03,0002.99
2023-11-10 07:37:00,SystemResetWarning,0832.4,5.01,000.00,022.1,021.0,000.0,030.6,023.4,10.8,0000.0,0003.46,0007.04,0003.00
2023-11-10 07:38:00,SystemResetWarning,0832.4,5.00,000.00,022.1,021.0,000.0,030.6,023.4,10.6,0000.0,0003.44,0006.92,0003.02
2023-11-10 07:39:00,SystemResetWarning,0832.4,4.99,000.00,022.1,021.0,000.0,030.6,023.3,10.6,0000.0,0003.44,0006.86,0003.03
2023-11-10 07:40:00,SystemResetWarning,0832.3,4.99,000.00,022.0,020.9,000.0,030.6,023.3,10.6,0000.0,0003.46,0007.00,0003.04
2023-11-10 07:41:00,SystemResetWarning,0832.3,5.00,000.00,022.0,020.9,000.0,030.5,023.3,10.7,0000.0,0003.47,0007.01,0003.04
2023-11-10 07:42:00,SystemResetWarning,0832.3,5.01,000.00,022.0,020.8,000.0,030.5,023.3,10.7,0000.0,0003.42,0006.74,0003.01
2023-11-10 07:43:00,SystemResetWarning,0832.3,5.01,000.00,022.0,020.8,000.0,030.5,023.3,10.7,0000.0,0003.38,0005.52,0002.97
2023-11-10 07:44:00,SystemResetWarning,0832.3,5.00,000.00,022.0,020.8,000.0,030.5,023.3,10.8,0000.0,0003.32,0005.02,0002.92
2023-11-10 07:45:00,SystemResetWarning,0832.3,5.00,000.00,022.0,020.8,000.0,030.5,023.2,10.8,0000.0,0003.32,0005.07,0002.90
2023-11-10 07:46:00,SystemResetWarning,0832.3,5.00,000.00,021.9,020.8,000.0,030.5,023.2,10.8,0000.0,0003.30,0005.43,0002.87
2023-11-10 07:47:00,SystemResetWarning,0832.3,4.99,000.00,021.9,020.8,000.0,030.5,023.2,10.9,0000.0,0003.28,0005.64,0002.84
2023-11-10 07:48:00,SystemResetWarning,0832.3,4.99,000.00,021.9,020.7,000.0,030.4,023.2,10.9,0000.0,0003.30,0005.84,0002.82
2023-11-10 07:49:00,SystemResetWarning,0832.3,5.00,000.00,021.9,020.7,000.0,030.4,023.2,10.9,0000.0,0003.32,0006.04,0002.80
2023-11-10 07:50:00,SystemResetWarning,0832.3,5.01,000.00,021.9,020.7,000.0,030.4,023.2,10.9,0000.0,0003.31,0006.57,0002.78
2023-11-10 07:51:00,SystemResetWarning,0832.3,5.01,000.00,021.9,020.7,000.0,030.4,023.3,10.8,0000.0,0003.30,0006.51,0002.76
2023-11-10 07:52:00,SystemResetWarning,0832.3,5.01,000.00,021.9,020.7,000.0,030.4,023.2,10.8,0000.0,0003.30,0006.47,0002.77
2023-11-10 07:53:00,SystemResetWarning,0832.3,4.99,000.00,021.9,020.7,000.0,030.4,023.3,10.8,0000.0,0003.34,0006.68,0002.77
2023-11-10 07:54:00,SystemResetWarning,0832.3,4.99,000.00,021.9,020.7,000.0,030.4,023.3,10.8,0000.0,0003.37,0006.90,0002.77
2023-11-10 07:55:00,SystemResetWarning,0832.3,4.99,000.00,021.9,020.7,000.0,030.4,023.3,10.7,0000.0,0003.37,0006.98,0002.78
2023-11-10 07:56:00,SystemResetWarning,0832.3,5.01,000.00,021.9,020.7,000.0,030.4,023.2,10.8,0000.0,0003.38,0007.00,0002.78
2023-11-10 07:57:00,SystemResetWarning,0832.2,5.00,000.00,021.9,020.7,000.0,030.4,023.2,10.7,0000.0,0003.39,0006.65,0002.76
2023-11-10 07:58:00,SystemResetWarning,0832.2,5.00,000.00,021.9,020.7,000.0,030.3,023.2,10.6,0000.0,0003.37,0006.23,0002.76
2023-11-10 07:59:00,SystemResetWarning,0832.2,5.01,000.00,021.9,020.7,000.0,030.3,023.2,10.6,0000.0,0003.36,0006.15,0002.75
